sat.trackr.live / text

‹ back to catalog

ICEYE-X7

NORAD 46496 · 2020-068L

PAYLOAD ACTIVE UNKNOWN

§ Identity

Operator
Country
FIN
Launch date
2020-09-28
Launch site
PLMSC
Launch vehicle
Mass (kg)
RCS (m²)

External: N2YO · Heavens-Above · Gunter

§ Orbital elements

Epoch: 2026-05-25T04:54:21.475872Z

Period
94.06 min
Inclination
97.7483°
Eccentricity
0.0009468
Mean motion
15.30925838 rev/d
Perigee alt
466.6 km
Apogee alt
479.5 km
Semi-major
6,851.2 km
B*
3.9072e-4
RAAN
110.6996°
Arg perigee
57.6791°
Mean anomaly
302.5365°
Rev number
31,127

§ Raw data

ICEYE-X71 46496U 20068L   26145.20441523  .00011614  00000+0  39072-3 0  99902 46496  97.7483 110.6996 0009468  57.6791 302.5365 15.30925838311275

JSON: /api/v1/satellites/46496 · /tle

For live sub-satellite position, see the globe view (requires WebGL).

§ Visibility from observer

Set your observer location to see the next 7 days of passes ≥ 10°. The values pass through the URL so the page stays shareable.

No JS? Fill the form by hand. The geolocation button needs JavaScript.

§ Radio — SatNOGS DB

ModeDescriptionDownlinkUplink
BPSK S-band telemetry 2.264 GHz

1 transmitter · refreshed weekly from db.satnogs.org